Location: Paderno d�Adda
(45.6667°N, 9.4333°E)
Time: 21:48:46
(UTC+00:00)

CENTAUR R/B - Pass Details

Date: 22 January 2021
Orbit: 742 x 1446 km, 63.5° (Epoch: 07 March)

Event Time Altitude Azimuth Distance (km) Brightness Sun altitude
Rises 16:48:35 0° 306° (NW) 4,338 6.4 -6.3°
Reaches altitude 10° 16:53:30 10° 281° (WNW) 3,469 6.4 -7.1°
Maximum altitude 16:56:48 13° 258° (WSW) 3,302 6.8 -7.6°
Drops below altitude 10° 17:00:10 10° 236° (SW) 3,545 6.9 -8.2°
Sets 17:05:22 0° 211° (SSW) 4,525 6.8 -9.0°
